[[{"header":{"parameterUnit":"m.s-1","parameterCategory":1,"la1":30.2991,"la2":30.254,"lo1":-89.0895,"lo2":-89.0444,"dy":0.0017,"dx":0.0017,"nx":28,"ny":28,"refTime":"2024-07-01T21:00:00:Z","depth":0,"parameterNumber":2,"parameterNumberName":"U-component_of_WINDS"},"data":[0,0,0,0,0,0,0,0,0,0,0,0,0,0,0,0,0,0,0,0,0,0,0,0,0,0,0,0,0,0,0,0,0,0,0,0,0,0,0,0,0,0,0,0,0,0,0,0,0,0,0,0,0,0,0,0,0,0,-3.3172,-3.3173,0,-3.33,-3.3302,-3.3303,-3.3389,-3.339,-3.339,-3.3391,-3.3519,-3.3521,-3.3524,0,0,0,0,0,0,0,0,0,0,0,0,0,-3.2998,-3.3001,-3.3172,-3.3173,-3.3175,-3.33,-3.3302,-3.3304,-3.3389,-3.339,-3.339,-3.3391,-3.3518,-3.3521,-3.3524,0,0,0,0,0,0,0,0,0,0,0,0,0,-3.3094,-3.3002,-3.3171,-3.3233,-3.3239,-3.33,-3.3302,-3.3304,-3.3389,-3.339,-3.3391,-3.3392,-3.3517,-3.3521,-3.3525,-3.3533,0,0,-3.3538,-3.354,0,0,0,0,0,0,0,0,-3.3089,-3.3101,-3.3222,-3.3228,-3.3236,-3.333,-3.3288,-3.3381,-3.3389,-3.3332,-3.3391,-3.3392,-3.3455,-3.3464,-3.3486,-3.3539,-3.3545,-3.3538,-3.3541,-3.3543,-3.3544,0,0,0,0,0,0,0,-3.3082,-3.3096,-3.3222,-3.3224,-3.3232,-3.3253,-3.3268,-3.3306,-3.3387,-3.3337,-3.3344,-3.3358,-3.3459,-3.3482,-3.349,-3.3547,-3.3538,-3.3542,-3.3545,-3.3546,-3.3615,-3.3615,0,0,0,0,0,0,-3.3066,-3.309,-3.3218,-3.3226,-3.3163,-3.3256,-3.3272,-3.3299,-3.3387,-3.3401,-3.3357,-3.3361,-3.3474,-3.3485,-3.3495,-3.3511,-3.3543,-3.3547,-3.3549,-3.3616,-3.3615,-3.3614,0,0,0,0,0,0,-3.3062,-3.3077,-3.3213,-3.316,-3.3179,-3.3258,-3.3287,-3.3301,-3.3324,-3.3402,-3.3416,-3.3366,-3.3475,-3.3489,-3.3524,-3.3516,-3.3549,-3.3553,-3.3617,-3.3616,-3.3615,-3.3543,0,0,0,0,0,0,-3.3057,-3.3075,-3.3079,-3.3159,-3.3181,-3.324,-3.3287,-3.3303,-3.3332,-3.3339,-3.3414,-3.3427,-3.3477,-3.3517,-3.3528,-3.3523,-3.3556,-3.3618,-3.3616,-3.3615,-3.3546,-3.3539,-3.3533,0,0,0,0,0,-3.305,-3.3052,-3.3079,-3.3094,-3.3188,-3.3239,-3.3252,-3.3311,-3.3331,-3.3335,-3.3386,-3.3425,-3.3516,-3.352,-3.3533,-3.3529,-3.3618,-3.3617,-3.3615,-3.3549,-3.354,-3.3534,0,0,0,0,0,0,-3.2966,-3.3063,-3.3094,-3.3122,-3.3172,-3.3254,-3.3261,-3.33,-3.3344,-3.3348,-3.3419,-3.3435,-3.3463,-3.35,-3.3502,-3.3543,-3.3572,-3.3573,-3.3517,-3.351,-3.3504,-3.3493,-3.3559,0,0,0,0,0,-3.2951,-3.2986,-3.3069,-3.3085,-3.3109,-3.3181,-3.3205,-3.3247,-3.3301,-3.3322,-3.3375,-3.3425,-3.3466,-3.349,-3.3532,-3.3553,-3.3571,-3.3557,-3.3551,-3.3545,-3.3544,-3.3559,-3.3554,-3.3609,-3.3609,-3.3609,0,0,-3.2919,-3.2977,-3.2994,-3.307,-3.3114,-3.3147,-3.3198,-3.3231,-3.3256,-3.3327,-3.3363,-3.3404,-3.3465,-3.3494,-3.3509,-3.3525,-3.3534,-3.3543,-3.3538,-3.354,-3.3557,-3.3552,-3.3547,-3.3608,-3.3608,-3.3608,0,0,-3.2879,-3.2926,-3.2946,-3.299,-3.3057,-3.3105,-3.311,-3.3187,-3.3217,-3.3256,-3.331,-3.3342,-3.3409,-3.3451,-3.3481,-3.3461,-3.3498,-3.3473,-3.3438,-3.3452,-3.3448,-3.3445,-3.3437,-3.3433,-3.3472,-3.3472,-3.3472,0,-3.283,-3.2884,-3.2951,-3.2982,-3.3013,-3.3082,-3.3102,-3.3141,-3.3217,-3.3237,-3.3256,-3.3344,-3.339,-3.343,-3.3425,-3.3448,-3.3455,-3.3463,-3.3444,-3.3441,-3.3438,-3.3432,-3.3429,-3.3468,-3.3469,-3.3469,-3.3469,0,-3.2821,-3.2858,-3.2866,-3.294,-3.2974,-3.2998,-3.3069,-3.3095,-3.3135,-3.3181,-3.322,-3.3279,-3.3333,-3.3347,-3.3385,-3.3393,-3.3401,-3.3431,-3.3461,-3.3428,-3.3423,-3.3421,-3.3463,-3.3464,-3.3465,-3.3466,0,0,-3.2726,-3.2841,-3.2842,-3.2877,-3.2958,-3.2987,-3.3017,-3.3073,-3.3093,-3.3145,-3.3171,-3.3229,-3.3258,-3.3292,-3.3336,-3.3349,-3.3329,-3.3377,-3.338,-3.3365,-3.3341,-3.3317,-3.3313,-3.3356,-3.3356,-3.3356,-3.3336,0,-3.2696,-3.2753,-3.2816,-3.2851,-3.2886,-3.2954,-3.298,-3.3032,-3.3077,-3.3113,-3.3164,-3.3203,-3.3239,-3.326,-3.3276,-3.3328,-3.3325,-3.3331,-3.3379,-3.338,-3.336,-3.331,-3.3284,-3.3262,-3.3334,-3.3334,-3.3334,0,-3.2667,-3.2718,-3.2757,-3.2837,-3.2854,-3.2876,-3.2934,-3.2968,-3.303,-3.3062,-3.3102,-3.315,-3.3185,-3.3214,-3.3262,-3.3265,-3.3289,-3.3318,-3.3319,-3.3323,-3.3353,-3.3311,-3.3256,-3.3252,-3.3332,-3.3332,-3.3332,0,-3.2592,-3.2671,-3.2705,-3.2733,-3.2828,-3.2842,-3.2882,-3.2945,-3.2975,-3.3026,-3.3046,-3.31,-3.3128,-3.3169,-3.323,-3.3246,-3.3272,-3.3306,-3.3299,-3.3297,-3.3298,-3.3297,-3.3244,-3.3318,-3.3318,-3.3318,-3.3318,0,-3.2551,-3.2571,-3.2673,-3.2692,-3.2719,-3.2792,-3.2815,-3.2861,-3.2917,-3.2948,-3.3011,-3.3037,-3.3119,-3.3155,-3.3204,-3.3237,-3.325,-3.3276,-3.3288,-3.3269,-3.3265,-3.3283,-3.3286,-3.3317,-3.3317,-3.3317,-3.3317,0,-3.2469,-3.2538,-3.2579,-3.2668,-3.2691,-3.2705,-3.2781,-3.2803,-3.2855,-3.2892,-3.2905,-3.2985,-3.3032,-3.3099,-3.3165,-3.3198,-3.3223,-3.3244,-3.3202,-3.3209,-3.3198,-3.3197,-3.3153,-3.315,-3.3227,-3.3226,-3.3226,0,-3.2436,-3.2454,-3.2546,-3.2572,-3.2611,-3.2651,-3.2684,-3.2758,-3.2789,-3.2863,-3.2877,-3.293,-3.2975,-3.3047,-3.311,-3.3162,-3.3183,-3.3165,-3.3191,-3.3172,-3.3181,-3.3178,-3.318,-3.3156,-3.3155,-3.3154,-3.3154,0,-3.237,-3.2405,-3.245,-3.2508,-3.2546,-3.2595,-3.2647,-3.2664,-3.275,-3.2782,-3.2832,-3.2868,-3.2938,-3.2989,-3.3051,-3.3091,-3.3136,-3.3146,-3.3147,-3.3125,-3.31,-3.3112,-3.3182,-3.3145,-3.3146,-3.3147,-3.3147,-3.3147,-3.2311,-3.233,-3.2399,-3.2448,-3.2496,-3.2544,-3.257,-3.2627,-3.267,-3.2734,-3.2776,-3.2824,-3.2888,-3.2976,-3.3015,-3.3054,-3.3072,-3.3073,-3.3073,-3.3072,-3.3064,-3.3097,-3.3065,-3.3066,-3.3066,-3.3066,-3.3067,0,-3.2246,-3.2295,-3.234,-3.2412,-3.2451,-3.2495,-3.2555,-3.2584,-3.2627,-3.2684,-3.2729,-3.2787,-3.2839,-3.2908,-3.2964,-3.2982,-3.3004,-3.2994,-3.2991,-3.3,-3.3046,-3.3038,-3.2975,-3.2975,-3.2975,-3.2975,-3.2975,-3.2975,-3.2217,-3.2253,-3.2296,-3.2358,-3.2407,-3.2456,-3.2487,-3.2531,-3.2578,-3.2641,-3.2685,-3.2731,-3.2793,-3.2856,-3.2905,-3.2924,-3.2941,-3.2924,-3.2948,-3.2989,-3.2997,-3.3005,-3.2998,-3.2927,-3.2927,-3.29,-3.29,-3.29]},{"header":{"parameterUnit":"m.s-1","parameterCategory":1,"la1":30.2991,"la2":30.254,"lo1":-89.0895,"lo2":-89.0444,"dy":0.0017,"dx":0.0017,"nx":28,"ny":28,"refTime":"2024-07-01T21:00:00:Z","depth":0,"parameterNumber":3,"parameterNumberName":"V-component_of_WINDS"},"data":[0,0,0,0,0,0,0,0,0,0,0,0,0,0,0,0,0,0,0,0,0,0,0,0,0,0,0,0,0,0,0,0,0,0,0,0,0,0,0,0,0,0,0,0,0,0,0,0,0,0,0,0,0,0,0,0,0,0,1.3893,1.3894,0,1.4039,1.4041,1.4043,1.4069,1.4067,1.4066,1.4065,1.4221,1.4227,1.4232,0,0,0,0,0,0,0,0,0,0,0,0,0,1.3643,1.3647,1.3893,1.3894,1.3896,1.4039,1.4041,1.4043,1.4069,1.4067,1.4066,1.4064,1.422,1.4226,1.4232,0,0,0,0,0,0,0,0,0,0,0,0,0,1.3766,1.3648,1.3892,1.3926,1.3931,1.4038,1.4041,1.4043,1.4069,1.4067,1.4065,1.4064,1.4218,1.4225,1.4233,1.4319,0,0,1.4258,1.4261,0,0,0,0,0,0,0,0,1.3759,1.3776,1.3919,1.3924,1.3929,1.4034,1.401,1.4136,1.407,1.4017,1.4065,1.4063,1.4161,1.4173,1.4205,1.4327,1.4334,1.4258,1.4263,1.4267,1.4269,0,0,0,0,0,0,0,1.3751,1.377,1.3951,1.3921,1.3928,1.3937,1.3952,1.4034,1.4098,1.4021,1.4023,1.404,1.4163,1.4197,1.4209,1.4336,1.4258,1.4265,1.427,1.4273,1.4538,1.454,0,0,0,0,0,0,1.3735,1.3762,1.3946,1.3955,1.3838,1.3942,1.396,1.4002,1.4097,1.4109,1.4041,1.4041,1.4185,1.42,1.4215,1.4322,1.4266,1.4274,1.4279,1.4536,1.4538,1.4541,0,0,0,0,0,0,1.373,1.3751,1.394,1.3859,1.3884,1.3949,1.3996,1.4006,1.404,1.4112,1.4124,1.4064,1.4184,1.4203,1.4293,1.4328,1.4278,1.4285,1.4533,1.4536,1.454,1.4538,0,0,0,0,0,0,1.3722,1.3749,1.3781,1.386,1.3888,1.4014,1.3998,1.401,1.4053,1.4053,1.4136,1.4149,1.4184,1.4281,1.4301,1.4338,1.4291,1.453,1.4535,1.4539,1.4535,1.4541,1.4546,0,0,0,0,0,1.3713,1.3775,1.3782,1.3804,1.3929,1.4016,1.4032,1.407,1.4055,1.4089,1.4136,1.4146,1.4321,1.429,1.4313,1.4353,1.4528,1.4533,1.4538,1.4533,1.454,1.4546,0,0,0,0,0,0,1.3701,1.3786,1.3795,1.3884,1.3942,1.402,1.4063,1.4076,1.4141,1.4139,1.4185,1.4204,1.4291,1.4331,1.4295,1.4443,1.4424,1.4434,1.4412,1.442,1.4425,1.4413,1.4298,0,0,0,0,0,1.3708,1.3769,1.3842,1.3914,1.3942,1.3998,1.4037,1.4061,1.4124,1.4149,1.4203,1.4265,1.4335,1.438,1.4448,1.4542,1.4561,1.4581,1.4586,1.459,1.4598,1.4653,1.4662,1.4557,1.4557,1.4557,0,0,1.3724,1.3778,1.3815,1.3913,1.396,1.4025,1.4018,1.4087,1.4136,1.4161,1.4248,1.429,1.4363,1.4456,1.4499,1.4492,1.4632,1.4597,1.4599,1.4605,1.4659,1.4669,1.4677,1.4561,1.456,1.456,0,0,1.3786,1.3833,1.3898,1.3946,1.4018,1.4055,1.4071,1.4148,1.4175,1.4263,1.4284,1.4345,1.4463,1.4514,1.4556,1.464,1.4653,1.4662,1.4689,1.4741,1.475,1.4757,1.4788,1.4798,1.4669,1.4669,1.4669,0,1.3797,1.3893,1.3931,1.3998,1.4042,1.4065,1.4133,1.4179,1.4271,1.4301,1.4292,1.4441,1.4493,1.4598,1.4618,1.4651,1.4673,1.4652,1.4745,1.4753,1.4761,1.479,1.4802,1.467,1.467,1.467,1.467,0,1.3904,1.3971,1.4015,1.4101,1.4149,1.4217,1.4267,1.4312,1.4333,1.4371,1.4462,1.4525,1.4606,1.4633,1.4654,1.4743,1.4736,1.4735,1.4718,1.4771,1.4799,1.4811,1.4671,1.467,1.467,1.467,0,0,1.396,1.4066,1.4082,1.4122,1.4204,1.4258,1.4328,1.4406,1.4444,1.4508,1.4568,1.4669,1.4669,1.4717,1.4744,1.479,1.4854,1.4785,1.4787,1.4795,1.4957,1.4956,1.4968,1.4863,1.4866,1.4867,1.495,0,1.4032,1.4154,1.4191,1.4295,1.4358,1.4383,1.4444,1.4503,1.4542,1.4603,1.4647,1.4717,1.4712,1.4741,1.4787,1.4836,1.4887,1.4831,1.4922,1.4925,1.4902,1.4983,1.4983,1.5058,1.4962,1.4964,1.4965,0,1.4131,1.4194,1.4303,1.4379,1.4407,1.4461,1.4536,1.4594,1.4662,1.4687,1.4741,1.4765,1.4842,1.4821,1.4929,1.489,1.493,1.496,1.4964,1.4973,1.4947,1.4995,1.5083,1.5094,1.4983,1.4982,1.498,0,1.4161,1.4274,1.4354,1.4388,1.4478,1.4515,1.4555,1.4621,1.4666,1.4733,1.4763,1.4839,1.4881,1.494,1.4985,1.4965,1.509,1.5072,1.5114,1.5113,1.5138,1.5136,1.5233,1.5165,1.5165,1.5164,1.5164,0,1.4236,1.4303,1.4369,1.4418,1.4494,1.4537,1.4612,1.4654,1.4713,1.4773,1.48,1.4856,1.4913,1.4977,1.5014,1.5098,1.5117,1.5141,1.515,1.5138,1.5135,1.5164,1.516,1.5168,1.5167,1.5166,1.5166,0,1.4282,1.4329,1.4418,1.4496,1.4517,1.457,1.4638,1.4689,1.4729,1.4805,1.4825,1.4889,1.4967,1.5018,1.5118,1.5142,1.5234,1.5242,1.521,1.5214,1.5254,1.5249,1.5373,1.5392,1.5311,1.5311,1.5312,0,1.4326,1.4378,1.4461,1.4502,1.4542,1.4608,1.4653,1.47,1.4747,1.4829,1.487,1.4949,1.5015,1.5138,1.5195,1.5272,1.5282,1.532,1.5294,1.5281,1.5283,1.5279,1.5285,1.5324,1.5325,1.5325,1.5326,0,1.4401,1.4422,1.4485,1.4558,1.4611,1.4671,1.4731,1.4764,1.4821,1.4873,1.4952,1.5002,1.5104,1.5183,1.5265,1.5309,1.5328,1.5334,1.5348,1.5336,1.5315,1.5327,1.5221,1.5331,1.533,1.533,1.5329,1.5329,1.4447,1.4494,1.4561,1.4631,1.4681,1.4737,1.4788,1.4835,1.4901,1.4985,1.5009,1.5092,1.5162,1.5274,1.532,1.5387,1.5383,1.5403,1.5408,1.5412,1.5413,1.5305,1.5402,1.5402,1.5402,1.5402,1.5402,0,1.4523,1.4567,1.4632,1.4714,1.4771,1.4782,1.4849,1.4896,1.4968,1.503,1.5094,1.5186,1.5263,1.5326,1.5407,1.5448,1.5459,1.5468,1.5465,1.5475,1.5411,1.5391,1.5458,1.5458,1.5458,1.5458,1.5458,1.5458,1.4569,1.4649,1.4678,1.4785,1.483,1.4909,1.4947,1.5,1.505,1.515,1.5213,1.5254,1.5318,1.5403,1.5476,1.5493,1.5521,1.5528,1.5547,1.5486,1.548,1.5474,1.5455,1.5534,1.5534,1.5606,1.5607,1.5607]}]]